Arabba, Italy 16 day weather forecast

Slopes altitude range 1200 m - 3275m

Number of lifts: 23 Pistes: 135km

In some cases the lift and piste totals shown are for the ski domain (e.g. Three Valleys) rather than individual resort (e.g. Courchevel)

Overview

The 16 day weather forecast is fully updated 4 times every day.

    • Mon 22 APR 2019
    • Mon 22
    • 9C 17C
    • Tue 23 APR 2019
    • Tue 23
    • 9C 9C
    • Wed 24 APR 2019
    • Wed 24
    • 11C 12C
    • Thu 25 APR 2019
    • Thu 25
    • 9C 16C
    • Fri 26 APR 2019
    • Fri 26
    • 10C 16C
    • Sat 27 APR 2019
    • Sat 27
    • 8C 19C
    • Sun 28 APR 2019
    • Sun 28
    • 11C 19C
    • Mon 29 APR 2019
    • Mon 29
    • 11C 16C
    • Tue 30 APR 2019
    • Tue 30
    • 14C 22C
    • Wed 01 MAY 2019
    • Wed 01
    • 10C 17C
    • Thu 02 MAY 2019
    • Thu 02
    • 8C 17C
    • Fri 03 MAY 2019
    • Fri 03
    • 8C 17C
    • Sat 04 MAY 2019
    • Sat 04
    • 10C 15C
    • Sun 05 MAY 2019
    • Sun 05
    • 12C 15C
    • Mon 06 MAY 2019
    • Mon 06
    • 10C 19C
    • Tue 07 MAY 2019
    • Tue 07
    • 10C 15C

Date:

Time Type 0°C level Temp Chill Snow Cloud Speed Gust Dir Press
3:00 2718m 10°C 10_7 0cm 100% 7mph 14mph 1014mB
6:00 2734m 9°C 9_10 0cm 100% 10mph 20mph 1013mB
9:00 2821m 9°C 9_14 0cm 84% 14mph 21mph 1010mB
12:00 2831m 17°C 17_15 0cm 91% 15mph 20mph 1008mB
15:00 2671m 17°C 17_10 0cm 100% 10mph 16mph 1007mB
18:00 2519m 17°C 17_8 0cm 100% 8mph 15mph 1007mB
21:00 2528m 10°C 10_7 0cm 100% 7mph 13mph 1007mB
0:00 2475m 10°C 10_8 0cm 100% 8mph 15mph 1006mB
3:00 2397m 9°C 9_7 0cm 100% 7mph 13mph 1004mB
6:00 2469m 9°C 9_6 0cm 100% 6mph 13mph 1003mB
9:00 2471m 9°C 9_5 0cm 100% 5mph 9mph 1003mB
12:00 2541m 9°C 9_5 0cm 100% 5mph 9mph 1004mB
15:00 2569m 9°C 9_5 0cm 100% 5mph 9mph 1003mB
18:00 2528m 9°C 9_4 0cm 100% 4mph 7mph 1005mB
21:00 2488m 9°C 9_2 0cm 100% 2mph 4mph 1008mB
0:00 2545m 9°C 9_1 0cm 100% 1mph 2mph 1009mB
3:00 2714m 9°C 9_4 0cm 100% 4mph 8mph 1011mB
6:00 2553m 9°C 9_9 0cm 100% 9mph 25mph 1012mB
9:00 2490m 11°C 11_14 0cm 100% 14mph 27mph 1013mB
12:00 2504m 12°C 12_12 0cm 100% 12mph 28mph 1014mB
15:00 2458m 12°C 12_12 0cm 100% 12mph 30mph 1015mB
18:00 2781m 12°C 12_10 0cm 100% 10mph 25mph 1015mB
21:00 3047m 10°C 10_7 0cm 97% 7mph 16mph 1018mB
0:00 2880m 9°C 9_4 0cm 90% 4mph 7mph 1019mB
3:00 2684m 8°C 8_3 0cm 97% 3mph 4mph 1020mB
6:00 2683m 8°C 8_2 0cm 99% 2mph 3mph 1020mB
9:00 2645m 9°C 9_3 0cm 100% 3mph 5mph 1020mB
12:00 2698m 16°C 16_1 0cm 100% 1mph 3mph 1019mB
15:00 2625m 18°C 18_6 0cm 100% 6mph 11mph 1018mB
18:00 2741m 18°C 18_4 0cm 100% 4mph 6mph 1017mB
21:00 2757m 9°C 9_4 0cm 100% 4mph 5mph 1019mB
0:00 2787m 8°C 8_5 0cm 51% 5mph 6mph 1018mB
3:00 2704m 8°C 8_7 0cm 10% 7mph 15mph 1017mB
6:00 2538m 8°C 8_9 0cm 23% 9mph 24mph 1016mB
9:00 2462m 10°C 10_9 0cm 75% 9mph 19mph 1016mB
12:00 2331m 16°C 16_7 0cm 66% 7mph 10mph 1015mB
15:00 2341m 17°C 17_3 0cm 0% 3mph 4mph 1014mB
18:00 2369m 17°C 17_4 0cm 0% 4mph 5mph 1015mB
21:00 2293m 8°C 8_5 0cm 0% 5mph 6mph 1018mB
0:00 2401m 7°C 7_5 0cm 0% 5mph 8mph 1019mB
3:00 2422m 6°C 6_5 0cm 0% 5mph 9mph 1021mB
6:00 2486m 5°C 5_5 0cm 0% 5mph 9mph 1022mB
9:00 2548m 8°C 8_6 0cm 48% 6mph 11mph 1023mB
12:00 2672m 19°C 19_5 0cm 35% 5mph 6mph 1022mB
15:00 2794m 21°C 21_2 0cm 6% 2mph 2mph 1021mB
18:00 2878m 21°C 21_4 0cm 41% 4mph 5mph 1022mB
21:00 2949m 10°C 10_2 0cm 100% 2mph 3mph 1024mB
0:00 2984m 9°C 9_2 0cm 98% 2mph 3mph 1024mB
3:00 2948m 8°C 8_2 0cm 99% 2mph 3mph 1024mB
6:00 2927m 7°C 7_1 0cm 97% 1mph 1mph 1024mB
9:00 2969m 11°C 11_3 0cm 99% 3mph 4mph 1023mB
12:00 3052m 19°C 19_7 0cm 98% 7mph 9mph 1022mB
15:00 3078m 19°C 19_7 0cm 77% 7mph 12mph 1021mB
18:00 3080m 19°C 19_5 0cm 38% 5mph 9mph 1021mB
21:00 3095m 9°C 9_5 0cm 0% 5mph 7mph 1022mB
0:00 3110m 8°C 8_5 0cm 0% 5mph 6mph 1021mB
3:00 3161m 8°C 8_5 0cm 9% 5mph 6mph 1019mB
6:00 3259m 7°C 7_5 0cm 16% 5mph 9mph 1018mB
9:00 3345m 11°C 11_7 0cm 90% 7mph 11mph 1017mB
12:00 3379m 16°C 16_9 0cm 93% 9mph 15mph 1015mB
15:00 3227m 22°C 22_12 0cm 37% 12mph 17mph 1011mB
18:00 3017m 22°C 22_9 0cm 61% 9mph 21mph 1010mB
21:00 2979m 13°C 13_4 0cm 100% 4mph 10mph 1009mB
0:00 3083m 12°C 12_1 0cm 96% 1mph 3mph 1007mB
3:00 2965m 11°C 11_2 0cm 70% 2mph 4mph 1005mB
6:00 2839m 10°C 10_2 0cm 55% 2mph 6mph 1004mB
9:00 2703m 14°C 14_6 0cm 6% 6mph 10mph 1003mB
12:00 2575m 22°C 22_8 0cm 4% 8mph 12mph 1002mB
15:00 2423m 23°C 23_5 0cm 3% 5mph 8mph 1002mB
18:00 2423m 23°C 23_6 0cm 8% 6mph 9mph 1003mB
21:00 2348m 12°C 12_4 0cm 0% 4mph 5mph 1007mB
0:00 2346m 9°C 9_9 0cm 0% 9mph 16mph 1009mB
3:00 2140m 8°C 8_9 0cm 1% 9mph 18mph 1010mB
6:00 1902m 7°C 7_9 0cm 4% 9mph 17mph 1011mB
9:00 1838m 10°C 10_11 0cm 14% 11mph 14mph 1011mB
12:00 2052m 17°C 17_9 0cm 7% 9mph 9mph 1009mB
15:00 2228m 18°C 18_7 0cm 0% 7mph 7mph 1008mB
18:00 2291m 18°C 18_4 0cm 0% 4mph 5mph 1009mB
21:00 2219m 10°C 10_6 0cm 0% 6mph 7mph 1011mB
0:00 2140m 9°C 9_4 0cm 1% 4mph 5mph 1011mB
Afternoon 0.114583mm 1.3125 2129m 17°C 17_2 0cm 59% 2mph 4mph 1008mB
Morning 0.151042mm 1.8125 2291m 9°C 9_5 0cm 3% 5mph 6mph 1011mB
Afternoon 0.0208333mm 0.25 2272m 17°C 17_4 0cm 30% 4mph 6mph 1010mB
Morning 0.114583mm 1.375 2397m 11°C 11_3 0cm 62% 3mph 5mph 1009mB
Afternoon 0.151042mm 0.0625 2582m 15°C 15_7 0cm 83% 7mph 11mph 1006mB
Morning 0.755208mm 0.125 2933m 12°C 12_2 0cm 96% 2mph 3mph 1005mB
Afternoon 1.38542mm 3.1875 2796m 15°C 15_4 0cm 98% 4mph 9mph 1001mB
Morning 0.96875mm 3.5 2209m 11°C 11_8 0cm 69% 8mph 20mph 1001mB
Afternoon 0.0416667mm 0.4375 2437m 19°C 19_10 0cm 83% 10mph 11mph 1002mB
Morning 0.640625mm 6.1875 2167m 12°C 12_6 0cm 61% 6mph 10mph 1006mB
Afternoon 0.0989583mm 0.0625 1887m 15°C 15_3 0cm 92% 3mph 4mph 1010mB
Morning 0.114583mm 1.125 1789m 8°C 8_3 0cm 44% 3mph 4mph 1018mB

16 day outlook at a glance

Forecast issued: 22/04/2019 08:38:26

Chat

Your comments and questions. In a resort? Let us know what it's like!


Characters left 250

For terms and conditions see Readers Comments on the Cookie and privacy policy page.